Location: Lone Wolf Observatory
(41.0360°N, 89.2260°W)
Time: 14:57:56
(UTC-05:00)

Amateur Radio Satellites - All Passes

Search period start: 05 May 2016 14:27
Search period end: 06 May 2016 14:27
Location: Lone Wolf Observatory, 41.0360°N, 89.2260°W

Satellite Date Start Highest point End Downlink Frequencies (MHz)
Time Altitude Azimuth
SPROUT 05 May 14:30:45 14:33:33 17° 295° (WNW) 14:36:21 437.525
SO-50 05 May 14:34:28 14:38:28 26° 45° (NE) 14:42:21 436.795
ITUPSAT 1 05 May 14:36:01 14:40:10 29° 96° (E) 14:44:18 437.325
Oscar 19 05 May 14:43:16 14:47:11 22° 267° (W) 14:51:08 437.125/150
SWISSCUBE 05 May 14:43:35 14:48:03 39° 98° (E) 14:52:30 437.505
AO-85 05 May 14:49:21 14:51:12 12° 328° (NNW) 14:53:03 145.980
TISAT 1 05 May 14:52:53 14:56:34 30° 291° (WNW) 15:00:14 437.305
PCSat 05 May 14:55:51 15:01:01 47° 112° (ESE) 15:06:13 145.827
AO-7 05 May 15:00:13 15:08:05 51° 64° (ENE) 15:16:00 29.400- 29.500
Gurwin Techsat 1B 05 May 15:00:35 15:05:27 36° 263° (W) 15:10:21 435.225
CUSAT 1 05 May 15:11:51 15:15:28 81° 98° (E) 15:20:19 437.405
BEESAT 05 May 15:16:13 15:21:00 77° 103° (ESE) 15:25:45 436.000
HORYU 2 05 May 15:24:06 15:25:21 11° 61° (ENE) 15:26:34 437.375
Cosmos 2491 05 May 15:47:23 15:50:32 12° 55° (NE) 15:53:40 435.465 / 435.565
O/OREOS (USA 219) 05 May 16:00:40 16:03:42 17° 306° (NW) 16:06:43 437.305
ITAMSAT 1 05 May 16:08:40 16:12:24 20° 267° (W) 16:16:09 435.822/435.867
ITUPSAT 1 05 May 16:13:49 16:17:56 30° 292° (WNW) 16:22:04 437.325
SO-50 05 May 16:14:41 16:19:06 41° 244° (WSW) 16:23:22 436.795
SWISSCUBE 05 May 16:21:55 16:25:37 23° 294° (WNW) 16:29:17 437.505
DANDE 05 May 16:23:10 16:25:59 33° 288° (WNW) 16:29:33 436.750
KKS-1 05 May 16:31:51 16:36:18 62° 101° (E) 16:40:41 437.445
PCSat 05 May 16:40:02 16:44:37 27° 311° (NW) 16:49:14 145.827
STARS 05 May 16:40:21 16:44:28 38° 98° (E) 16:48:33 437.465
NOAA 15 05 May 16:52:05 16:55:43 19° 62° (ENE) 16:59:23 137.62
BRITE-PL 05 May 16:52:26 16:53:44 11° 57° (ENE) 16:55:04 437.365/2234.400
AO-7 05 May 16:53:33 17:01:01 37° 262° (W) 17:08:33 29.400- 29.500
BEESAT 05 May 16:56:11 16:58:08 12° 300° (WNW) 17:00:06 436.000
HORYU 2 05 May 16:56:47 17:01:16 78° 259° (WSW) 17:05:44 437.375
MOZHAYETS 4 05 May 16:57:09 17:01:45 77° 103° (ESE) 17:06:19
NOAA 18 05 May 16:58:24 17:02:24 21° 62° (ENE) 17:06:22 137.9125
Cubesat XI-IV 05 May 17:05:36 17:08:56 17° 61° (ENE) 17:12:16 437.490
CUBESAT XI-V 05 May 17:15:26 17:17:43 13° 90° (E) 17:19:59 437.345
M-CUBED/EXP-1 PRIME 05 May 17:26:53 17:28:16 11° 56° (NE) 17:29:39 437.505
Cosmos 2491 05 May 17:40:41 17:49:27 63° 79° (ENE) 17:58:06 435.465 / 435.565
AUBIESAT-1 05 May 17:41:59 17:44:05 13° 57° (ENE) 17:46:08 437.475
GOMX 1 05 May 17:45:43 17:49:14 19° 62° (ENE) 17:52:51 467.674
YUBILEINY 05 May 17:51:58 17:59:18 31° 83° (E) 18:06:36 435.215
CUTE-I 05 May 17:57:56 18:03:02 49° 70° (ENE) 18:08:08 437.470
HO-68 05 May 18:04:19 18:06:24 11° 49° (NE) 18:08:29 435.675
BEESAT 3 05 May 18:08:05 18:12:01 87° 306° (NW) 18:15:59 437.485
KKS-1 05 May 18:10:07 18:12:20 14° 298° (WNW) 18:14:33 437.445
STARS 05 May 18:17:22 18:20:34 20° 294° (WNW) 18:23:45 437.465
BEESAT 2 05 May 18:21:28 18:25:26 75° 120° (ESE) 18:29:26 435.950
BRITE-PL 05 May 18:26:17 18:31:11 82° 76° (ENE) 18:36:33 437.365/2234.400
LilacSat-2 05 May 18:29:16 18:33:09 89° 53° (NE) 18:37:03 437.200
NOAA 15 05 May 18:29:52 18:35:02 57° 259° (W) 18:40:16 137.62
MOZHAYETS 4 05 May 18:36:45 18:38:16 12° 299° (WNW) 18:39:47
NOAA 18 05 May 18:37:13 18:42:37 56° 259° (WSW) 18:48:02 137.9125
Cubesat XI-IV 05 May 18:43:09 18:48:27 66° 258° (WSW) 18:53:46 437.490
CUBESAT XI-V 05 May 18:50:50 18:55:29 62° 286° (WNW) 19:00:08 437.345
M-CUBED/EXP-1 PRIME 05 May 18:57:24 19:02:07 86° 75° (ENE) 19:06:46 437.505
CUTE 1.7 + AOD 2 05 May 19:01:08 19:02:38 12° 63° (ENE) 19:04:07 437.475
DOVE 4 05 May 19:01:47 19:06:43 47° 71° (ENE) 19:11:48 437.250
AUBIESAT-1 05 May 19:13:20 19:17:59 78° 252° (WSW) 19:22:32 437.475
SEEDS 05 May 19:21:42 19:23:57 14° 65° (ENE) 19:26:13 437.485
GOMX 1 05 May 19:21:42 19:26:43 60° 260° (W) 19:32:04 467.674
Cosmos 2504 05 May 19:21:57 19:27:42 26° 84° (E) 19:33:23 435.465 / 435.565
CINEMA 3 05 May 19:22:46 19:26:52 26° 67° (ENE) 19:30:57 145.822/145.860
Cosmos 2491 05 May 19:38:33 19:45:35 28° 278° (W) 19:52:35 435.465 / 435.565
CUTE-I 05 May 19:39:22 19:43:19 21° 267° (W) 19:47:16 437.470
HO-68 05 May 19:45:40 19:52:38 59° 68° (ENE) 19:59:38 435.675
AAUSAT CUBESAT 2 05 May 19:46:31 19:48:57 15° 65° (ENE) 19:51:23 437.432
YUBILEINY 05 May 19:47:03 19:55:35 56° 283° (WNW) 20:04:08 435.215
STRAND 1 05 May 19:48:11 19:53:02 42° 99° (E) 19:57:52 437.568
BEESAT 3 05 May 19:49:03 19:50:20 11° 321° (NW) 19:51:38 437.485
CUBEBUG 2 05 May 19:49:41 19:52:26 16° 64° (ENE) 19:55:11 437.445
AO-85 05 May 19:56:49 20:00:34 22° 42° (NE) 20:04:03 145.980
CANX-2 05 May 20:01:35 20:05:44 62° 75° (ENE) 20:09:54 2200.000
BEESAT 2 05 May 20:01:47 20:03:47 13° 319° (NW) 20:05:48 435.950
BRITE-PL 05 May 20:08:54 20:10:26 11° 274° (W) 20:12:00 437.365/2234.400
AIST 2 05 May 20:19:29 20:23:37 88° 310° (NW) 20:27:46 435.215
PRISM 05 May 20:25:33 20:28:31 19° 94° (E) 20:31:27 437.425
Oscar 11 05 May 20:33:36 20:36:54 22° 67° (ENE) 20:40:13 145.826/435.025
CUTE 1.7 + AOD 2 05 May 20:33:45 20:37:55 64° 259° (WSW) 20:42:07 437.475
M-CUBED/EXP-1 PRIME 05 May 20:37:01 20:37:07 10° 266° (W) 20:37:13 437.505
DOVE 4 05 May 20:40:41 20:44:36 22° 268° (W) 20:48:39 437.250
FUNcube-1 05 May 20:49:26 20:53:13 27° 69° (ENE) 20:56:57 145.935
COMPASS 1 05 May 20:52:21 20:56:28 76° 259° (W) 21:00:36 437.405
SEEDS 05 May 20:55:12 20:59:15 49° 261° (W) 21:03:18 437.485
CINEMA 3 05 May 20:59:08 21:03:46 38° 263° (W) 21:08:26 145.822/145.860
RS-15 05 May 21:04:30 21:15:21 58° 112° (ESE) 21:26:47 29.354- 29.394
UWE-3 05 May 21:09:27 21:14:02 71° 76° (ENE) 21:18:34 435.000/436.395/437.385
Cosmos 2504 05 May 21:13:35 21:20:35 52° 283° (WNW) 21:27:35 435.465 / 435.565
AAUSAT CUBESAT 2 05 May 21:20:09 21:24:04 44° 261° (W) 21:28:01 437.432
CUBEBUG 2 05 May 21:23:57 21:28:36 58° 260° (W) 21:33:12 437.445
STRAND 1 05 May 21:27:56 21:31:56 24° 295° (WNW) 21:35:57 437.568
ZACube-1 05 May 21:32:40 21:37:12 85° 74° (ENE) 21:41:39 437.345
HO-68 05 May 21:34:54 21:40:43 26° 266° (W) 21:46:34 435.675
AO-85 05 May 21:36:49 21:41:25 52° 243° (WSW) 21:45:35 145.980
CANX-2 05 May 21:41:00 21:41:59 11° 270° (W) 21:42:59 2200.000
YUBILEINY 05 May 21:54:10 21:54:40 10° 306° (NW) 21:55:10 435.215
PRISM 05 May 22:00:06 22:03:55 35° 290° (WNW) 22:07:44 437.425
AIST 2 05 May 22:01:02 22:02:44 12° 321° (NW) 22:04:26 435.215
DELFI C3 05 May 22:06:15 22:10:10 70° 259° (WSW) 22:14:07 145.870
HUMSAT D 05 May 22:07:23 22:11:27 50° 73° (ENE) 22:15:29 437.325/437.525
Oscar 11 05 May 22:08:58 22:12:51 32° 263° (W) 22:16:45 145.826/435.025
TIGRISAT 05 May 22:10:20 22:11:11 10° 89° (E) 22:12:02 435.000
FUNcube-1 05 May 22:25:32 22:29:23 27° 264° (W) 22:33:11 145.935
ANTELSAT 05 May 22:33:56 22:37:16 22° 94° (E) 22:40:33 437.575/2403.000
AISAT 05 May 22:36:10 22:39:03 17° 64° (ENE) 22:41:57 437.250
50 SAT 05 May 22:40:28 22:42:43 16° 67° (ENE) 22:44:57 437.505
UWE-3 05 May 22:49:37 22:50:55 11° 271° (W) 22:52:14 435.000/436.395/437.385
O/OREOS (USA 219) 05 May 22:52:22 22:54:06 12° 51° (NE) 22:55:48 437.305
CUBEBUG 1 05 May 23:02:21 23:06:07 28° 68° (ENE) 23:09:55 437.445
ESTCUBE 1 05 May 23:06:57 23:11:13 45° 72° (ENE) 23:15:30 437.505/2401.250
RS-15 05 May 23:17:14 23:28:07 48° 317° (NW) 23:39:40 29.354- 29.394
DUCHIFAT 1 05 May 23:21:19 23:22:54 12° 90° (E) 23:24:27 145.980
DX 1 05 May 23:23:23 23:27:31 44° 71° (ENE) 23:31:42 434.975-435.025
UKube-1 05 May 23:23:43 23:27:39 36° 70° (ENE) 23:31:38 .
QB50P2 05 May 23:25:35 23:28:13 16° 92° (E) 23:30:51 145.880/145.840
UNISAT 6 05 May 23:27:40 23:32:00 89° 93° (E) 23:36:15 437.425
POLYITAN 1 05 May 23:27:46 23:30:27 16° 93° (E) 23:33:05 437.675
POPSAT HIP 1 05 May 23:29:24 23:32:06 16° 92° (E) 23:34:48 437.405
QB50P1 05 May 23:32:06 23:35:02 18° 93° (E) 23:37:56 145.935-145.965
GONETS M04 05 May 23:36:35 23:44:16 35° 84° (E) 23:51:54
VELOX 1 05 May 23:38:04 23:42:28 72° 75° (ENE) 23:46:56 145.980
PCSat 05 May 23:43:45 23:48:49 38° 53° (NE) 23:53:50 145.827
TIGRISAT 05 May 23:44:04 23:48:20 64° 286° (WNW) 23:52:31 435.000
HUMSAT D 05 May 23:45:21 23:47:21 13° 269° (W) 23:49:21 437.325/437.525
SPROUT 05 May 23:47:17 23:51:09 32° 70° (ENE) 23:55:00 437.525
BUGSAT 1 05 May 23:49:07 23:50:28 11° 90° (E) 23:51:49 437.445
CUSAT 1 06 May 00:03:44 00:07:28 14° 61° (ENE) 00:11:20 437.405
NANOSAT C BR1 06 May 00:04:09 00:08:08 39° 98° (E) 00:12:04 145.865
TISAT 1 06 May 00:09:39 00:12:30 18° 65° (ENE) 00:15:22 437.305
ANTELSAT 06 May 00:10:13 00:14:02 31° 290° (WNW) 00:17:48 437.575/2403.000
AISAT 06 May 00:10:51 00:15:09 47° 261° (W) 00:19:29 437.250
AIST 1 06 May 00:11:00 00:15:15 61° 95° (E) 00:19:34
50 SAT 06 May 00:12:56 00:16:15 32° 263° (W) 00:19:34 437.505
O/OREOS (USA 219) 06 May 00:29:35 00:34:07 81° 249° (WSW) 00:38:35 437.305
CUBEBUG 1 06 May 00:38:42 00:42:22 26° 265° (W) 00:46:04 437.445
ESTCUBE 1 06 May 00:45:23 00:48:15 17° 268° (W) 00:51:08 437.505/2401.250
BEESAT 06 May 00:49:38 00:50:03 10° 59° (ENE) 00:50:27 436.000
DUCHIFAT 1 06 May 00:54:48 00:58:57 56° 286° (WNW) 01:03:01 145.980
QB50P2 06 May 01:00:13 01:04:14 42° 288° (WNW) 01:08:12 145.880/145.840
UKube-1 06 May 01:00:38 01:03:48 20° 266° (W) 01:06:59 .
DX 1 06 May 01:01:08 01:03:55 17° 267° (W) 01:06:43 434.975-435.025
POLYITAN 1 06 May 01:02:27 01:06:26 41° 288° (WNW) 01:10:22 437.675
POPSAT HIP 1 06 May 01:04:06 01:08:05 40° 288° (WNW) 01:12:01 437.405
QB50P1 06 May 01:07:02 01:10:56 37° 289° (WNW) 01:14:49 145.935-145.965
Cosmos 2499 06 May 01:09:02 01:16:01 70° 94° (E) 01:23:07 435.465 / 435.565
Oscar 19 06 May 01:15:37 01:18:47 16° 91° (E) 01:21:55 437.125/150
DANDE 06 May 01:15:46 01:21:17 24° 70° (ENE) 01:27:29 436.750
VELOX 1 06 May 01:18:48 01:19:25 10° 271° (W) 01:20:03 145.980
BUGSAT 1 06 May 01:22:06 01:26:13 57° 286° (WNW) 01:30:15 437.445
SPROUT 06 May 01:23:47 01:27:08 22° 266° (W) 01:30:29 437.525
JAS-2 06 May 01:25:02 01:32:32 46° 97° (E) 01:39:50 435.910
PCSat 06 May 01:27:21 01:32:05 31° 251° (WSW) 01:36:47 145.827
GONETS M04 06 May 01:32:08 01:40:42 52° 284° (WNW) 01:49:17
RS-15 06 May 01:35:52 01:44:44 23° 349° (N) 01:53:54 29.354- 29.394
Gurwin Techsat 1B 06 May 01:40:08 01:40:58 10° 88° (E) 01:41:47 435.225
NANOSAT C BR1 06 May 01:40:42 01:43:34 18° 295° (WNW) 01:46:25 145.865
ITUPSAT 1 06 May 01:42:37 01:46:52 34° 69° (ENE) 01:51:08 437.325
CUSAT 1 06 May 01:43:14 01:50:44 67° 78° (ENE) 01:58:47 437.405
TISAT 1 06 May 01:43:49 01:47:50 41° 261° (W) 01:51:53 437.305
SWISSCUBE 06 May 01:49:49 01:54:19 44° 71° (ENE) 01:58:51 437.505
AIST 1 06 May 01:51:43 01:53:18 12° 292° (WNW) 01:54:52
BEESAT 06 May 02:22:18 02:27:03 87° 74° (ENE) 02:31:50 436.000
BEESAT 3 06 May 02:25:35 02:29:27 50° 54° (NE) 02:33:16 437.485
BEESAT 2 06 May 02:39:47 02:43:36 41° 53° (NE) 02:47:23 435.950
ITAMSAT 1 06 May 02:41:42 02:45:04 17° 92° (E) 02:48:25 435.822/435.867
Oscar 19 06 May 02:53:22 02:58:30 61° 287° (WNW) 03:03:36 437.125/150
DANDE 06 May 02:57:29 03:04:29 73° 263° (W) 03:12:44 436.750
AO-7 06 May 03:04:20 03:08:18 14° 88° (E) 03:12:15 29.400- 29.500
Cosmos 2499 06 May 03:04:54 03:09:52 20° 294° (WNW) 03:14:53 435.465 / 435.565
JAS-2 06 May 03:10:11 03:17:21 41° 295° (WNW) 03:24:27 435.910
Gurwin Techsat 1B 06 May 03:16:16 03:21:37 90° 105° (ESE) 03:26:56 435.225
ITUPSAT 1 06 May 03:20:49 03:24:44 25° 265° (W) 03:28:40 437.325
CUSAT 1 06 May 03:26:17 03:32:24 27° 274° (W) 03:38:49 437.405
SWISSCUBE 06 May 03:28:59 03:32:19 19° 267° (W) 03:35:40 437.505
KKS-1 06 May 03:29:29 03:33:51 55° 73° (ENE) 03:38:16 437.445
STARS 06 May 03:36:46 03:40:46 34° 70° (ENE) 03:44:47 437.465
RS-15 06 May 03:52:45 04:02:53 29° 25° (NNE) 04:13:07 29.354- 29.394
MOZHAYETS 4 06 May 03:58:38 04:03:09 71° 76° (ENE) 04:07:43
YUBILEINY 06 May 04:02:44 04:07:15 15° 59° (ENE) 04:11:46 435.215
BEESAT 3 06 May 04:04:40 04:06:44 14° 250° (WSW) 04:08:46 437.485
BEESAT 2 06 May 04:18:31 04:21:08 17° 249° (WSW) 04:23:44 435.950
CUBESAT XI-V 06 May 04:19:12 04:21:28 14° 62° (ENE) 04:23:45 437.345
ITAMSAT 1 06 May 04:19:48 04:24:53 57° 288° (WNW) 04:29:57 435.822/435.867
AIST 2 06 May 04:40:58 04:45:04 56° 54° (NE) 04:49:08 435.215
DANDE 06 May 04:43:16 04:46:34 14° 277° (W) 04:50:04 436.750
HORYU 2 06 May 04:48:43 04:51:55 19° 94° (E) 04:55:06 437.375
Cosmos 2491 06 May 04:51:12 04:54:40 13° 74° (ENE) 04:58:09 435.465 / 435.565
AO-7 06 May 04:53:55 05:02:18 77° 107° (ESE) 05:10:39 29.400- 29.500
Gurwin Techsat 1B 06 May 04:58:34 05:00:46 13° 302° (WNW) 05:02:58 435.225
KKS-1 06 May 05:08:26 05:10:45 14° 269° (W) 05:13:05 437.445
STARS 06 May 05:13:44 05:17:11 22° 266° (W) 05:20:39 437.465
ISS 06 May 05:16:39 05:18:39 15° 131° (SE) 05:20:39 145.825
MOZHAYETS 4 06 May 05:39:38 05:40:48 11° 271° (W) 05:41:59
CUBESAT XI-V 06 May 05:53:44 05:58:17 65° 259° (W) 06:02:55 437.345
YUBILEINY 06 May 05:57:00 06:05:44 74° 81° (E) 06:14:27 435.215
RS-15 06 May 06:05:45 06:18:04 72° 54° (NE) 06:30:22 29.354- 29.394
CUTE-I 06 May 06:15:54 06:19:40 19° 92° (E) 06:23:26 437.470
AIST 2 06 May 06:21:02 06:23:04 13° 251° (WSW) 06:25:06 435.215
HORYU 2 06 May 06:24:31 06:28:36 38° 290° (WNW) 06:32:40 437.375
SO-50 06 May 06:27:45 06:32:36 66° 119° (ESE) 06:37:29 436.795
BRITE-PL 06 May 06:31:27 06:36:28 31° 94° (E) 06:41:19 437.365/2234.400
Cosmos 2491 06 May 06:41:03 06:49:49 73° 93° (E) 06:58:37 435.465 / 435.565
NOAA 15 06 May 06:44:59 06:50:14 54° 101° (E) 06:55:25 137.62
AO-7 06 May 06:47:48 06:54:16 26° 306° (NW) 07:00:44 29.400- 29.500
ISS 06 May 06:51:34 06:54:47 59° 326° (NNW) 06:58:01 145.825
NOAA 18 06 May 06:59:13 07:04:39 62° 102° (ESE) 07:10:02 137.9125
Cubesat XI-IV 06 May 07:00:29 07:05:40 50° 100° (E) 07:10:49 437.490
DOVE 4 06 May 07:03:12 07:05:27 13° 87° (E) 07:07:41 437.250
STRAND 1 06 May 07:03:50 07:08:50 60° 73° (ENE) 07:13:52 437.568
Cosmos 2504 06 May 07:04:25 07:11:57 54° 78° (ENE) 07:19:59 435.465 / 435.565
PRISM 06 May 07:15:55 07:18:03 14° 64° (ENE) 07:20:12 437.425
GOMX 1 06 May 07:23:58 07:29:09 46° 97° (E) 07:34:02 467.674
LilacSat-2 06 May 07:37:06 07:40:50 56° 286° (WNW) 07:44:32 437.200
CANX-2 06 May 07:49:19 07:50:17 11° 90° (E) 07:51:14 2200.000
CUTE-I 06 May 07:54:51 08:00:01 53° 289° (WNW) 08:05:10 437.470
YUBILEINY 06 May 07:55:18 08:01:34 23° 280° (W) 08:07:52 435.215
BRITE-PL 06 May 08:09:43 08:14:55 37° 291° (WNW) 08:19:59 437.365/2234.400
SO-50 06 May 08:09:55 08:13:33 20° 318° (NW) 08:17:11 436.795
PHONESAT 2.4 06 May 08:11:28 08:13:46 19° 152° (SSE) 08:16:06 2401.200-2431.200
M-CUBED/EXP-1 PRIME 06 May 08:12:22 08:16:10 63° 106° (ESE) 08:19:38 437.505
RS-15 06 May 08:19:10 08:29:41 36° 255° (WSW) 08:40:12 29.354- 29.394
CUTE 1.7 + AOD 2 06 May 08:19:22 08:22:37 21° 94° (E) 08:25:52 437.475
NOAA 15 06 May 08:25:45 08:29:35 20° 297° (WNW) 08:33:23 137.62
AUBIESAT-1 06 May 08:27:36 08:31:24 80° 107° (ESE) 08:34:54 437.475
ISS 06 May 08:29:36 08:31:46 16° 346° (NNW) 08:33:58 145.825
COMPASS 1 06 May 08:36:17 08:39:03 17° 93° (E) 08:41:49 437.405
DOVE 4 06 May 08:38:41 08:43:44 68° 286° (WNW) 08:48:27 437.250
SEEDS 06 May 08:39:26 08:42:58 26° 95° (E) 08:46:29 437.485
Cosmos 2491 06 May 08:40:33 08:47:29 25° 294° (WNW) 08:54:29 435.465 / 435.565
NOAA 18 06 May 08:41:06 08:44:47 19° 299° (WNW) 08:48:28 137.9125
Cubesat XI-IV 06 May 08:41:24 08:45:23 22° 296° (WNW) 08:49:21 437.490
STRAND 1 06 May 08:45:23 08:48:24 16° 269° (W) 08:51:25 437.568
PRISM 06 May 08:48:59 08:52:56 49° 260° (W) 08:56:57 437.425
CINEMA 3 06 May 08:54:06 08:58:35 54° 99° (E) 09:02:50 145.822/145.860
Cosmos 2504 06 May 08:58:29 09:04:55 30° 275° (W) 09:11:44 435.465 / 435.565
HO-68 06 May 09:00:47 09:07:53 62° 102° (ESE) 09:14:57 435.675
UWE-3 06 May 09:01:13 09:03:12 13° 90° (E) 09:05:10 435.000/436.395/437.385
GOMX 1 06 May 09:02:39 09:06:51 24° 295° (WNW) 09:10:54 467.674
AAUSAT CUBESAT 2 06 May 09:02:39 09:06:12 27° 96° (E) 09:09:44 437.432
TIGRISAT 06 May 09:08:52 09:10:27 12° 62° (ENE) 09:12:01 435.000
CUBEBUG 2 06 May 09:15:35 09:19:16 28° 95° (E) 09:22:52 437.445
CANX-2 06 May 09:22:21 09:26:31 63° 286° (WNW) 09:30:43 2200.000
ZACube-1 06 May 09:22:39 09:25:06 15° 92° (E) 09:27:33 437.345
ANTELSAT 06 May 09:32:38 09:36:07 22° 67° (ENE) 09:39:33 437.575/2403.000
DELFI C3 06 May 09:45:19 09:47:38 15° 92° (E) 09:49:57 145.870
PHONESAT 2.4 06 May 09:47:11 09:50:17 61° 168° (SSE) 09:53:24 2401.200-2431.200
GONETS M04 06 May 09:47:33 09:52:40 16° 60° (ENE) 09:57:44
M-CUBED/EXP-1 PRIME 06 May 09:49:29 09:50:06 10° 305° (NW) 09:50:42 437.505
CUTE 1.7 + AOD 2 06 May 09:54:45 09:58:30 31° 290° (WNW) 10:02:14 437.475
Oscar 11 06 May 09:55:46 09:59:53 43° 99° (E) 10:03:59 145.826/435.025
ISS 06 May 10:07:30 10:09:15 14° 6° (N) 10:10:59 145.825
COMPASS 1 06 May 10:10:53 10:14:45 38° 288° (WNW) 10:18:38 437.405
FUNcube-1 06 May 10:13:04 10:17:10 54° 100° (E) 10:21:12 145.935
SEEDS 06 May 10:15:07 10:18:35 26° 291° (WNW) 10:22:04 437.485
QB50P2 06 May 10:19:01 10:21:03 13° 63° (ENE) 10:23:06 145.880/145.840
AIST 1 06 May 10:19:15 10:21:57 16° 70° (ENE) 10:24:36
POLYITAN 1 06 May 10:21:09 10:23:16 14° 63° (ENE) 10:25:23 437.675
POPSAT HIP 1 06 May 10:22:38 10:24:47 14° 63° (ENE) 10:26:54 437.405
QB50P1 06 May 10:25:11 10:27:34 15° 64° (ENE) 10:29:57 145.935-145.965
UNISAT 6 06 May 10:25:45 10:30:23 77° 74° (ENE) 10:34:56 437.425
CINEMA 3 06 May 10:32:39 10:35:12 15° 297° (WNW) 10:37:41 145.822/145.860
UWE-3 06 May 10:35:54 10:39:59 49° 287° (WNW) 10:43:59 435.000/436.395/437.385
AAUSAT CUBESAT 2 06 May 10:38:13 10:41:36 24° 291° (WNW) 10:44:58 437.432
TIGRISAT 06 May 10:41:53 10:46:31 77° 257° (WSW) 10:51:05 435.000
HO-68 06 May 10:49:21 10:55:06 27° 301° (WNW) 11:00:50 435.675
CUBEBUG 2 06 May 10:52:21 10:55:47 24° 292° (WNW) 10:59:08 437.445
NANOSAT C BR1 06 May 10:56:12 10:59:54 29° 69° (ENE) 11:03:37 145.865
ZACube-1 06 May 10:57:41 11:01:38 42° 288° (WNW) 11:05:31 437.345
Cosmos 2499 06 May 10:59:24 11:05:40 25° 69° (ENE) 11:12:15 435.465 / 435.565
ANTELSAT 06 May 11:08:17 11:12:35 38° 262° (W) 11:16:51 437.575/2403.000
DELFI C3 06 May 11:18:56 11:22:41 40° 288° (WNW) 11:26:26 145.870
PHONESAT 2.4 06 May 11:23:56 11:27:05 80° 183° (S) 11:30:13 2401.200-2431.200
HUMSAT D 06 May 11:26:16 11:30:22 82° 281° (W) 11:34:26 437.325/437.525
VELOX 1 06 May 11:29:58 11:32:14 14° 91° (E) 11:34:31 145.980
Oscar 11 06 May 11:32:52 11:35:41 17° 295° (WNW) 11:38:29 145.826/435.025
JAS-2 06 May 11:38:59 11:43:15 19° 56° (NE) 11:47:49 435.910
GONETS M04 06 May 11:42:14 11:51:02 80° 82° (E) 11:59:44
50 SAT 06 May 11:43:03 11:45:44 19° 95° (E) 11:48:26 437.505
ISS 06 May 11:43:32 11:46:29 30° 26° (NNE) 11:49:26 145.825
DUCHIFAT 1 06 May 11:46:01 11:50:16 81° 256° (WSW) 11:54:34 145.980
AO-85 06 May 11:49:20 11:54:40 57° 118° (ESE) 11:59:59 145.980
FUNcube-1 06 May 11:51:02 11:52:56 13° 297° (WNW) 11:54:49 145.935
QB50P2 06 May 11:52:08 11:56:22 58° 260° (W) 12:00:36 145.880/145.840
POLYITAN 1 06 May 11:54:21 11:58:35 57° 259° (W) 12:02:50 437.675
AIST 1 06 May 11:55:35 11:59:48 45° 267° (W) 12:03:59
POPSAT HIP 1 06 May 11:55:51 12:00:05 57° 260° (W) 12:04:19 437.405
QB50P1 06 May 11:58:45 12:02:55 52° 260° (W) 12:07:07 145.935-145.965
AISAT 06 May 12:01:16 12:05:16 31° 97° (E) 12:09:13 437.250
UNISAT 6 06 May 12:07:02 12:07:33 10° 271° (W) 12:08:04 437.425
BUGSAT 1 06 May 12:11:02 12:15:17 87° 251° (WSW) 12:19:35 437.445
CUBEBUG 1 06 May 12:26:28 12:30:52 57° 100° (E) 12:35:12 437.445
Oscar 19 06 May 12:32:02 12:36:08 24° 65° (ENE) 12:40:15 437.125/150
NANOSAT C BR1 06 May 12:32:11 12:35:38 23° 265° (W) 12:39:05 145.865
ESTCUBE 1 06 May 12:35:53 12:40:26 80° 283° (WNW) 12:44:58 437.505/2401.250
UKube-1 06 May 12:46:22 12:50:43 68° 102° (ESE) 12:55:01 .
DX 1 06 May 12:47:25 12:51:50 85° 106° (ESE) 12:56:12 434.975-435.025
Cosmos 2499 06 May 12:51:31 12:59:19 68° 267° (W) 13:07:42 435.465 / 435.565
Gurwin Techsat 1B 06 May 12:59:31 13:03:08 19° 62° (ENE) 13:06:44 435.225
PHONESAT 2.4 06 May 13:00:51 13:03:46 35° 201° (SSW) 13:06:40 2401.200-2431.200
VELOX 1 06 May 13:04:40 13:09:03 55° 287° (WNW) 13:13:24 145.980
O/OREOS (USA 219) 06 May 13:05:33 13:07:11 12° 97° (E) 13:08:49 437.305
SPROUT 06 May 13:08:42 13:12:59 64° 101° (ESE) 13:17:12 437.525
50 SAT 06 May 13:16:26 13:19:30 26° 290° (WNW) 13:22:35 437.505
ISS 06 May 13:19:57 13:22:58 34° 223° (SW) 13:25:57 145.825
JAS-2 06 May 13:21:10 13:27:16 81° 256° (WSW) 13:34:17 435.910
SO-50 06 May 13:21:32 13:22:40 11° 33° (NNE) 13:23:49 436.795
TISAT 1 06 May 13:27:58 13:31:40 29° 96° (E) 13:35:19 437.305
AO-85 06 May 13:31:00 13:35:31 26° 315° (NW) 13:39:59 145.980
AISAT 06 May 13:37:59 13:41:36 24° 293° (WNW) 13:45:10 437.250
GONETS M04 06 May 13:40:50 13:46:45 21° 281° (WNW) 13:52:38
SWISSCUBE 06 May 13:52:29 13:53:52 11° 89° (E) 13:55:15 437.505
ITAMSAT 1 06 May 13:59:17 14:03:34 27° 66° (ENE) 14:07:52 435.822/435.867
AO-7 06 May 14:02:51 14:08:59 24° 53° (NE) 14:15:07 29.400- 29.500
CUBEBUG 1 06 May 14:04:17 14:06:39 14° 297° (WNW) 14:09:01 437.445
Oscar 19 06 May 14:10:17 14:15:11 42° 262° (W) 14:20:08 437.125/150
UKube-1 06 May 14:24:31 14:26:11 12° 298° (WNW) 14:27:51 .
